Find Starlink 30193

NORAD ID: 57414 Int'l Des: 2023-102 Owner: SPXS Country: US Constellation: starlink operational
LEOCIRCULAR

Live-Position

3D-Globus wird geladen...

Über Starlink 30193

Beschreibung wird geladen...

Nächste Überflüge

Passes for default location (London). Set your location on the main map for personalized predictions.

Höhenverlauf

Loading altitude history...

Zweizeiliger Elementsatz

1 57414U 23102L 26133.50002315 -.00007794 00000-0 -24207-3 0 9997
2 57414 43.0008 243.9295 0001651 332.9990 99.6244 15.31541658 5840
Epoch: 13. Mai 2026 • Age: 8 hours

Aktueller Status

Höhe 473.6 km
Geschwindigkeit 7.63 km/s
Subsatellitenpunkt 34.69°N, 157.88°W
Startdatum 19. Juli 2023
Alter 2.8 years
Typ internet

Technische Details

Klassifizierung Payload
Masse 730.00 kg
Trockenmasse 700.00 kg
Gesamtmasse 730.00 kg
Länge 0.30 m
Durchmesser 4.10 m
Spannweite 29.00 m
Form Box + pan
Hersteller SPXS
Bus-Typ Starlink V2M
Phasenstatus In Orbit
Besitzer/Staat SPXS/US

Most Searched